Williamtown Air Force Base, Australia

8:53 AM AEDT on February 08, 2016 (GMT +1100)
Williamtown Military

Weather History for YWLM - October, 2013

Change the Weather History Date:

Saturday, October 26, 2013

  Actual Average Record
Temperature  
Mean Temperature 61 °F -  
Max Temperature 73 °F - - ()
Min Temperature 49 °F - - ()
Degree Days  
Heating Degree Days 4    
Growing Degree Days 11 (Base 50)    
Moisture  
Dew Point 46 °F    
Average Humidity 61    
Maximum Humidity 94    
Minimum Humidity 18    
Precipitation  
Precipitation 0.00 in - - ()
Sea Level Pressure  
Sea Level Pressure 30.12 in    
Wind  
Wind Speed 8 mph ()    
Max Wind Speed 22 mph    
Max Gust Speed -    
Visibility 6.2 miles    
Events      
T = Trace of Precipitation, MM = Missing Value Source: Averaged Metar Reports

Daily Weather History Graph

Daily Weather History Graph

Search for Another Location

Airport or City:

Trip Planner

Search our weather history database for the weather conditions in past years. The results will help you decide how hot, cold, wet, or windy it might be!

Date:

Astronomy

Oct. 26, 2013 Rise Set
Actual Time 6:00 AM AEDT 7:13 PM AEDT
Civil Twilight 5:34 AM AEDT 7:39 PM AEDT
Nautical Twilight 5:03 AM AEDT 8:10 PM AEDT
Astronomical Twilight 4:32 AM AEDT 8:41 PM AEDT
Moon 12:34 AM AEDT (10/26) 11:22 AM AEDT (10/26)
Length of Visible Light 14h 04m
Length of Day
13h 13m
Waning Gibbous, 59% of the Moon is Illuminated
Oct 26
Waning Gibbous
Oct 27
Last Quarter
Nov 3
New
Nov 10
First Quarter
Nov 18
Full

Hourly Weather History & Observations

Time (AEDT) Temp. Dew Point Humidity Pressure Visibility Wind Dir Wind Speed Gust Speed Precip Events Conditions
12:00 AM 55 °F 49 °F 74% 30.12 in - Calm Calm - -  
12:00 AM 55.4 °F 50.0 °F 82% 30.09 in 6.2 mi Calm Calm - N/A   Unknown
12:30 AM 53.6 °F 50.0 °F 88% 30.09 in 6.2 mi Calm Calm - N/A   Unknown
1:00 AM 51.8 °F 50.0 °F 94% 30.09 in 6.2 mi Calm Calm - N/A   Unknown
1:30 AM 51.8 °F 50.0 °F 94% 30.09 in 6.2 mi WNW 5.8 mph - N/A   Unknown
2:00 AM 53 °F 50 °F 84% 30.10 in - NW 6.9 mph - -  
2:00 AM 51.8 °F 50.0 °F 94% 30.09 in 6.2 mi NW 6.9 mph - N/A   Unknown
2:30 AM 53.6 °F 50.0 °F 88% 30.09 in 6.2 mi WNW 10.4 mph - N/A   Unknown
3:00 AM 53 °F 49 °F 82% 30.10 in - WNW 10.4 mph - -  
3:00 AM 53.6 °F 50.0 °F 88% 30.09 in 6.2 mi WNW 10.4 mph - N/A   Unknown
3:30 AM 51.8 °F 48.2 °F 88% 30.09 in 6.2 mi WNW 5.8 mph - N/A   Unknown
4:00 AM 51.8 °F 48.2 °F 88% 30.06 in 6.2 mi WNW 5.8 mph - N/A   Unknown
4:30 AM 51.8 °F 48.2 °F 88% 30.06 in 6.2 mi NW 5.8 mph - N/A   Unknown
5:00 AM 50 °F 47 °F 87% 30.09 in - NW 8.1 mph - -  
5:00 AM 50.0 °F 48.2 °F 94% 30.09 in 6.2 mi NW 8.1 mph - N/A   Unknown
5:30 AM 50.0 °F 46.4 °F 87% 30.09 in 6.2 mi NW 6.9 mph - N/A   Unknown
6:00 AM 50 °F 45 °F 77% 30.12 in - WNW 8.1 mph - -  
6:00 AM 50.0 °F 44.6 °F 82% 30.09 in 6.2 mi WNW 8.1 mph - N/A   Unknown
6:30 AM 51.8 °F 46.4 °F 82% 30.12 in 6.2 mi WNW 8.1 mph - N/A   Unknown
7:00 AM 53.6 °F 44.6 °F 72% 30.12 in 6.2 mi WNW 9.2 mph - N/A   Unknown
7:30 AM 57.2 °F 44.6 °F 63% 30.12 in 6.2 mi WNW 8.1 mph - N/A   Unknown
8:00 AM 62 °F 40 °F 32% 30.14 in - WNW 11.5 mph - -  
8:00 AM 60.8 °F 39.2 °F 45% 30.12 in 6.2 mi WNW 11.5 mph - N/A   Unknown
8:30 AM 62.6 °F 37.4 °F 39% 30.12 in 6.2 mi West 13.8 mph - N/A   Mostly Cloudy
9:00 AM 64 °F 33 °F 20% 30.15 in - WNW 13.8 mph - -  
9:00 AM 64.4 °F 33.8 °F 32% 30.12 in 6.2 mi WNW 13.8 mph - N/A   Mostly Cloudy
9:30 AM 64.4 °F 32.0 °F 30% 30.12 in 6.2 mi West 12.7 mph - N/A   Unknown
10:00 AM 66.2 °F 33.8 °F 30% 30.15 in 6.2 mi West 9.2 mph - N/A   Unknown
10:30 AM 68.0 °F 32.0 °F 26% 30.15 in 6.2 mi West 9.2 mph - N/A   Unknown
11:00 AM 69 °F 35 °F 18% 30.15 in - South 11.5 mph - -  
11:00 AM 68.0 °F 35.6 °F 30% 30.15 in 6.2 mi South 11.5 mph - N/A   Scattered Clouds
11:30 AM 68.0 °F 39.2 °F 35% 30.12 in 6.2 mi SSE 11.5 mph - N/A   Overcast
12:00 PM 70 °F 38 °F 20% 30.15 in - South 17.3 mph - -   Overcast
12:00 PM 69.8 °F 37.4 °F 31% 30.12 in 6.2 mi South 17.3 mph - N/A   Mostly Cloudy
12:30 PM 69.8 °F 39.2 °F 33% 30.12 in 6.2 mi South 19.6 mph - N/A   Unknown
1:00 PM 69.8 °F 37.4 °F 31% 30.12 in 6.2 mi South 19.6 mph - N/A   Unknown
1:30 PM 71.6 °F 42.8 °F 35% 30.12 in 6.2 mi South 20.7 mph - N/A   Unknown
2:00 PM 73 °F 46 °F 28% 30.12 in - SSE 20.7 mph - -  
2:00 PM 73.4 °F 46.4 °F 38% 30.09 in 6.2 mi SSE 20.7 mph - N/A   Unknown
2:30 PM 71.6 °F 46.4 °F 41% 30.09 in 6.2 mi SSE 21.9 mph - N/A   Unknown
3:00 PM 69 °F 50 °F 40% 30.10 in - SSE 21.9 mph - -  
3:00 PM 69.8 °F 50.0 °F 49% 30.09 in 6.2 mi SSE 21.9 mph - N/A   Unknown
3:30 PM 69.8 °F 48.2 °F 46% 30.09 in 6.2 mi SSE 18.4 mph - N/A   Unknown
4:00 PM 68.0 °F 53.6 °F 60% 30.06 in 6.2 mi SSE 20.7 mph - N/A   Unknown
4:30 PM 68.0 °F 53.6 °F 60% 30.09 in 6.2 mi SSE 19.6 mph - N/A   Scattered Clouds
5:00 PM 68 °F 53 °F 48% 30.10 in - SE 18.4 mph - -  
5:00 PM 68.0 °F 53.6 °F 60% 30.09 in 6.2 mi SE 18.4 mph - N/A   Unknown
5:30 PM 68.0 °F 51.8 °F 56% 30.09 in 6.2 mi SE 17.3 mph - N/A   Unknown
6:00 PM 66 °F 52 °F 51% 30.12 in - ESE 16.1 mph - -  
6:00 PM 66.2 °F 51.8 °F 60% 30.09 in 6.2 mi ESE 16.1 mph - N/A   Scattered Clouds
6:30 PM 64.4 °F 51.8 °F 64% 30.09 in 6.2 mi ESE 15.0 mph - N/A   Scattered Clouds
7:00 PM 64.4 °F 51.8 °F 64% 30.12 in 6.2 mi ESE 11.5 mph - N/A   Scattered Clouds
7:30 PM 62.6 °F 50.0 °F 63% 30.12 in 6.2 mi ESE 10.4 mph - N/A   Scattered Clouds
8:00 PM 63 °F 51 °F 55% 30.16 in - East 8.1 mph - -  
8:00 PM 62.6 °F 50.0 °F 63% 30.15 in 6.2 mi East 8.1 mph - N/A   Unknown
8:30 PM 62.6 °F 50.0 °F 63% 30.15 in 6.2 mi East 6.9 mph - N/A   Unknown
9:00 PM 56 °F 50 °F 75% 30.19 in - Calm Calm - -  
9:00 PM 57.2 °F 50.0 °F 77% 30.18 in 6.2 mi Calm Calm - N/A   Unknown
9:30 PM 55.4 °F 50.0 °F 82% 30.18 in 6.2 mi Calm Calm - N/A   Mostly Cloudy
10:00 PM 55.4 °F 51.8 °F 88% 30.18 in 6.2 mi Calm Calm - N/A   Overcast
10:30 PM 55.4 °F 50.0 °F 82% 30.18 in 6.2 mi Calm Calm - N/A   Overcast
11:00 PM 53 °F 49 °F 81% 30.21 in - Calm Calm - -  
11:00 PM 53.6 °F 48.2 °F 82% 30.18 in 6.2 mi Calm Calm - N/A   Mostly Cloudy
11:30 PM 51.8 °F 50.0 °F 94% 30.21 in 6.2 mi Calm Calm - N/A   Unknown